Location: Bocchiglicro
(39.4167°N, 16.7500°E)
Time: 12:18:25
(UTC+00:00)

STARLINK-1020 - Pass Details

Date: 07 June 2020
Orbit: 549 x 550 km, 53.0° (Epoch: 02 July)

Event Time Altitude Azimuth Distance (km) Brightness Sun altitude
Exits shadow 02:51:33 - 223° (SW) 2,005 5.8 -6.4°
Reaches altitude 10° 02:52:02 10° 223° (SW) 1,812 5.6 -6.3°
Maximum altitude 02:56:09 76° 137° (SE) 567 3.7 -5.7°
Drops below altitude 10° 03:00:17 10° 52° (NE) 1,822 8.2 -5.0°
Sets 03:02:31 0° 51° (NE) 2,718 10.1 -4.7°
